Showing default

COSMOS 1998, 19789

Orbit data source: Space-Track

COSMOS 1998, 19789 is a payload satellite owned by UNKS (CIS) in LEO that was launched on Fri, 10 Feb 1989 UTC via a TSIKLON-3 launch vehicle from the Plesetsk Missile And Space Complex (PKMTR). Payload-class satellites include a variety of spacecraft equipped with specific instruments for various scientific and technological missions. These include communications satellites like Starlink; space stations such as the ISS; scientific satellites like the Hubble; Earth observation satellites from companies like Planet Labs, Umbra, and HawkEye 360; GPS; miniature CubeSats for education and research; and military/defense satellites.

Loading next visibility...
Identifier
19789, 1989-009E
Orbit
LEO
Country
Flag of CISCIS
Related business
Manufacturer
NPO PM
Mission
Defense Communications
Bus & Motor
STRELA-3, Unknown motor
Mass
225 kg wet, 225 kg dry
Launch date (UTC)
1989-02-10 (37 years ago)
Launch vehicle
TSIKLON-3
Launch site
Plesetsk Missile And Space Complex (PKMTR)
Object type
Payload
Rocket body
Debris
Shape & HBR
Cyl, 0.8 m
Radar Cross Section
1.257 m², Large (>1 m²)

Expand to show TLE details & history
Last TLE update: 9 hours ago

TLE from 9 hours ago
0 COSMOS 1998
1 19789U 89009E   26126.15341222  .00000025  00000-0  75309-4 0  9992
2 19789  82.6143 358.3317 0016520  20.1282 340.0459 12.64932637718700
Epoch: 2026-05-06T03:40Z
TLE epoch observation values (Epoch: 2026-05-06T03:40:54.815Z)
Latitude
-0.00001°
Longitude
79.08531°
Altitude
1,393.304 km
Speed
7.169 km/s
True Right ascension
23h 53m 19s
True Declination
0° 00' 00"
Sunlit
Object was in daylight at epoch
Visualization orbit readout
Latitude
Unknown
Longitude
Unknown
Altitude
Unknown
Speed
Unknown
Apparent Right ascension
Unknown
Apparent Declination
Unknown
Sunlit
N/A
Visualization observer readout
Local Sidereal Time
20:16:07
Azimuth
Unknown
Elevation
Unknown
Doppler factor
Unknown
Orbital elements
Apogee altitude
1,412.816 km
Perigee altitude
1,387.117 km
Semi-major axis
7,778.103 km
Eccentricity
0.00165
Inclination
82.6143°
RAAN
358.3317°
Arg. of periapsis
20.1282°
True anomaly
339.98117°
Mean anomaly
340.0459°
Eccentric anomaly
340.01355°
Mean motion
3.16397 °/min
Orbital period
113.78 mins
BSTAR
0.000075309
Loading maneuver chart data...
Computing Atmospheric mass density...
Loading historical data...
Loading historical data...
Loading historical data...
Loading historical data...
Loading historical data...
Loading historical data...
Loading historical data...

Documentation

Showing up to 5 results
|